Dewpoint
9 10 10 10 11 11 12 13 13 13 16 18 20 21 22 22 22 24 23 23 24 25 26 26 27 27 28
7 8 9 10 11 12 13 11 10 13 18 17 21 21 21 21 23 23 21 21 22 24 24 24 25 25 26
7 8 9 12 11 12 12 13 15 15 14 18 17 19 20 22 22 22 18 20 22 22 22 23 23 23 24
7 7 9 10 12 12 12 14 13 15 16 17 18 16 17 18 18 17 17 19 20 20 21 22 22 22 23
9 10 10 11 11 12 12 13 15 17 18 17 16 14 14 14 15 15 16 17 19 21 22 22 21 22 22
14 13 13 13 14 15 15 17 17 18 16 13 12 12 14 16 17 17 18 20 20 21 20 20 20 20 20
19 19 20 21 20 14 14 16 13 12 11 8 10 12 14 14 16 17 19 20 20 19 18 18 19 19 21
7 7 8 8 9 8 8 8 8 9 9 9 10 12 14 15 18 18 19 18 17 17 17 17 19 18 18
11 12 12 15 20 23 20 19 17 19 20 20 19 19 18 17 16 15 14 15 16 17 19 19 16 15 15
12 11 10 10 10 11 11 11 10 10 12 13 12 12 11 12 13 14 16 19 19 17 15 14 13 13 13
11 12 14 15 16 16 15 14 13 12 13 15 16 17 17 18 21 19 17 13 11 10 10 10 11 12 13
18 17 17 17 17 17 18 18 19 19 21 19 18 18 16 13 8 5 6 7 9 11 12 13 13 13 13
17 15 13 13 15 15 17 18 20 20 18 15 13 10 8 8 8 9 9 11 13 13 13 13 14 14 14
11 11 12 15 18 20 17 15 13 12 11 10 9 9 9 9 10 11 14 14 13 13 13 13 14 14 14
3 5 5 8 10 10 9 8 7 6 5 6 6 7 9 11 13 13 11 12 13 13 13 13 14 14 14
9 10 12 9 7 6 6 6 5 5 4 4 6 8 9 10 11 11 13 13 13 13 13 13 13 14 15
12 9 7 7 5 5 4 4 4 4 4 5 6 7 6 5 5 7 8 9 10 10 10 11 11 11 12
Wind_Speed
9 10 12 16 17 15 14 13 13 22 22 22 22 22 21 23 22 22 19 23 23 24 24 24 25 25 24
13 12 13 14 16 17 16 16 16 18 23 24 23 22 24 26 20 21 22 26 24 24 23 25 25 26 26
16 13 13 13 16 15 17 17 14 19 24 20 21 21 24 24 24 24 28 26 25 24 25 25 25 26 27
15 15 14 13 12 16 18 14 16 15 16 19 22 25 28 28 29 30 26 25 25 26 26 27 28 28 29
17 17 16 15 16 15 16 16 15 11 14 15 15 17 18 21 22 24 24 24 26 27 28 29 30 30 30
19 20 20 16 14 14 16 17 16 10 15 20 16 18 16 15 22 26 27 28 28 29 30 30 30 31 33
18 14 13 8 9 12 14 15 20 17 18 26 13 20 16 17 25 28 28 29 32 32 33 32 33 32 31
20 20 19 18 18 19 22 23 23 20 20 25 15 22 17 19 27 29 31 34 35 34 34 35 32 32 33
28 29 30 31 29 20 19 17 17 14 12 14 13 18 17 19 20 29 33 35 34 35 32 30 32 35 32
19 24 26 24 29 24 20 21 21 23 17 18 17 17 20 15 21 20 17 21 24 27 31 34 37 29 26
21 19 19 20 19 20 22 22 22 23 20 18 19 17 19 16 9 13 14 18 19 23 30 35 36 35 27
17 18 19 19 18 19 21 20 20 23 18 19 14 14 16 22 26 23 23 22 21 23 22 27 34 37 38
13 13 14 14 16 18 17 19 18 17 15 15 16 19 22 25 27 24 27 23 19 22 22 23 25 25 27
15 15 14 13 13 9 13 13 14 15 15 18 21 22 25 25 25 28 24 24 21 23 23 26 25 25 26
16 17 17 17 13 8 9 12 16 18 20 19 20 23 23 27 26 26 27 26 25 26 25 28 28 26 26
16 17 14 10 9 11 12 15 18 19 21 21 20 21 22 27 32 28 26 27 27 28 28 29 32 27 26
7 6 8 10 15 13 15 17 19 20 22 21 20 21 27 30 27 27 26 26 27 26 28 28 32 32 27
Wind_Direction
270 280 282 287 292 290 290 286 285 296 294 294 293 294 289 294 291 291 305 302 305 304 304 308 307 306 302
278 274 266 269 271 280 286 285 284 286 290 295 287 294 294 284 290 300 300 299 300 301 304 303 301 301 301
274 270 263 258 267 269 271 276 273 278 286 284 291 297 293 292 293 297 295 292 293 295 296 296 297 294 294
263 266 263 261 255 265 271 269 273 275 272 281 285 293 291 289 286 286 287 287 286 291 290 290 290 292 291
262 265 265 264 257 262 265 269 271 258 275 275 280 277 278 284 281 282 283 281 282 285 288 289 288 288 290
254 255 258 255 261 261 265 266 269 233 262 273 270 274 270 268 274 281 281 282 284 288 288 284 288 286 286
263 260 270 270 277 280 271 266 268 264 264 272 266 269 269 268 276 279 280 281 283 287 286 285 283 284 287
270 274 267 263 255 257 259 261 264 261 253 265 266 268 272 271 271 275 278 279 281 280 280 278 281 288 290
266 268 269 266 260 255 254 251 263 265 261 260 265 264 266 266 270 274 276 276 276 274 276 287 291 291 290
261 267 270 273 275 277 281 274 273 276 267 259 267 267 277 262 265 265 271 277 280 286 286 285 286 285 282
258 257 254 255 256 257 255 255 260 262 265 262 268 269 264 273 285 286 270 271 275 277 279 280 280 280 278
251 250 249 249 250 255 258 255 253 255 267 267 270 261 274 281 280 283 276 274 273 271 269 270 275 277 276
262 269 271 273 265 263 261 257 257 258 263 265 266 272 271 271 274 275 276 270 264 267 270 269 267 267 270
269 272 271 268 267 260 264 261 264 268 263 261 264 265 269 266 267 268 263 265 271 265 266 267 266 264 264
264 264 263 257 255 256 268 275 272 273 275 271 268 265 261 262 263 262 269 268 265 266 267 267 266 264 263
252 255 253 248 261 270 270 265 268 270 273 275 278 278 273 264 255 265 264 264 265 265 263 265 269 265 261
220 243 262 267 272 274 272 270 271 272 273 275 273 268 271 270 272 254 261 265 267 264 261 260 264 268 265